GSAT-14

Last updated on Sat Jul 05 2025 00:02:45 GMT+0000 (Coordinated Universal Time)

1 39498U 14001A 25185.50872525 -.00000063 00000+0 00000+0 0 9992 2 39498 0.0362 268.6074 0001194 229.2759 42.0047 1.00272310 42098
UTC large
Height (km)
Speed (km/s)
/
Latitude / Longitude
Inclination (degrees)
Orbital Period (minutes)
Azimuth
Elevation
Range (km)
Doppler Factor

Next 0 passes for location: London (51.5072 / 0.1276)

Sorry there are no passes over London.